[[{"header":{"parameterUnit":"m.s-1","parameterCategory":1,"la1":30.2991,"la2":30.254,"lo1":-89.0895,"lo2":-89.0444,"dy":0.0017,"dx":0.0017,"nx":28,"ny":28,"refTime":"2025-08-20T03:00:00:Z","depth":0,"parameterNumber":2,"parameterNumberName":"U-component_of_WINDS"},"data":[0,0,0,0,0,0,0,0,0,0,0,0,0,0,0,0,0,0,0,0,0,0,0,0,0,0,0,0,0,0,0,0,0,0,0,0,0,0,0,0,0,0,0,0,0,0,0,0,0,0,0,0,0,0,0,0,0,0,-0.6838,-0.6841,0,-0.7078,-0.7081,-0.7083,-0.7134,-0.7133,-0.7131,-0.7129,-0.7389,-0.7397,-0.7406,0,0,0,0,0,0,0,0,0,0,0,0,0,-0.6439,-0.6446,-0.6838,-0.6841,-0.6844,-0.7077,-0.7081,-0.7084,-0.7135,-0.7133,-0.713,-0.7128,-0.7386,-0.7396,-0.7406,0,0,0,0,0,0,0,0,0,0,0,0,0,-0.6639,-0.6449,-0.6837,-0.6897,-0.6905,-0.7077,-0.7081,-0.7085,-0.7135,-0.7133,-0.713,-0.7127,-0.7383,-0.7395,-0.7408,-0.7542,0,0,-0.7447,-0.7453,0,0,0,0,0,0,0,0,-0.6628,-0.6654,-0.6885,-0.6893,-0.6902,-0.7073,-0.7035,-0.7239,-0.7136,-0.7048,-0.7129,-0.7126,-0.7287,-0.7308,-0.7359,-0.7554,-0.7565,-0.7448,-0.7456,-0.7462,-0.7465,0,0,0,0,0,0,0,-0.6614,-0.6644,-0.6933,-0.6889,-0.6899,-0.6917,-0.6942,-0.7074,-0.718,-0.7056,-0.706,-0.7087,-0.7291,-0.7346,-0.7365,-0.7569,-0.7448,-0.746,-0.7467,-0.7473,-0.7891,-0.7894,0,0,0,0,0,0,-0.6588,-0.6632,-0.6926,-0.6941,-0.6755,-0.6926,-0.6955,-0.7021,-0.7179,-0.72,-0.7089,-0.7088,-0.7326,-0.735,-0.7375,-0.7545,-0.7462,-0.7474,-0.7481,-0.7887,-0.7892,-0.7895,0,0,0,0,0,0,-0.6579,-0.6613,-0.6916,-0.6788,-0.6827,-0.6936,-0.701,-0.7027,-0.7082,-0.7204,-0.7224,-0.7125,-0.7324,-0.7357,-0.75,-0.7554,-0.748,-0.7491,-0.7883,-0.7889,-0.7893,-0.7883,0,0,0,0,0,0,-0.6567,-0.661,-0.6658,-0.6788,-0.6834,-0.7032,-0.7014,-0.7034,-0.7103,-0.7104,-0.7243,-0.7264,-0.7325,-0.748,-0.7513,-0.7571,-0.7501,-0.7879,-0.7886,-0.7892,-0.7879,-0.7887,-0.7894,0,0,0,0,0,-0.6553,-0.6648,-0.666,-0.6695,-0.6896,-0.7035,-0.7062,-0.7126,-0.7107,-0.7159,-0.7238,-0.7259,-0.7542,-0.7494,-0.7531,-0.7594,-0.7876,-0.7884,-0.7891,-0.7876,-0.7886,-0.7894,0,0,0,0,0,0,-0.6526,-0.6666,-0.6681,-0.682,-0.6915,-0.7043,-0.7111,-0.7134,-0.724,-0.7238,-0.7318,-0.7349,-0.7488,-0.7556,-0.75,-0.7734,-0.7709,-0.7724,-0.7685,-0.7695,-0.7702,-0.7684,-0.7512,0,0,0,0,0,-0.6535,-0.6632,-0.6751,-0.6863,-0.6909,-0.7001,-0.7065,-0.7106,-0.721,-0.7251,-0.734,-0.7444,-0.7557,-0.763,-0.774,-0.7889,-0.7923,-0.7951,-0.7958,-0.7964,-0.7977,-0.8065,-0.808,-0.792,-0.792,-0.792,0,0,-0.6558,-0.6646,-0.6703,-0.686,-0.6938,-0.7041,-0.7035,-0.7144,-0.7224,-0.727,-0.7409,-0.7478,-0.76,-0.7747,-0.7817,-0.7808,-0.8028,-0.7973,-0.7977,-0.7987,-0.8074,-0.8089,-0.8102,-0.7925,-0.7924,-0.7924,0,0,-0.6651,-0.6725,-0.6827,-0.6905,-0.7022,-0.7084,-0.7108,-0.7234,-0.728,-0.7421,-0.7458,-0.7557,-0.7748,-0.7834,-0.7903,-0.803,-0.8056,-0.8064,-0.8104,-0.8189,-0.8201,-0.8213,-0.8262,-0.8278,-0.8077,-0.8077,-0.8077,0,-0.6665,-0.6817,-0.6878,-0.6986,-0.7056,-0.7097,-0.7205,-0.7279,-0.7429,-0.7478,-0.7465,-0.7707,-0.7792,-0.7962,-0.7993,-0.8046,-0.8081,-0.8049,-0.8194,-0.8206,-0.8218,-0.8265,-0.8283,-0.8077,-0.8077,-0.8077,-0.8077,0,-0.683,-0.6935,-0.7005,-0.7143,-0.7221,-0.7328,-0.7411,-0.7483,-0.7518,-0.7582,-0.7728,-0.7831,-0.7964,-0.8007,-0.8044,-0.8184,-0.8175,-0.8176,-0.8154,-0.8232,-0.8279,-0.8297,-0.8078,-0.8078,-0.8077,-0.8077,0,0,-0.6913,-0.7083,-0.7108,-0.7173,-0.7306,-0.7391,-0.7503,-0.7628,-0.7691,-0.7793,-0.7892,-0.8053,-0.8056,-0.8134,-0.8182,-0.8255,-0.8354,-0.8249,-0.8253,-0.8267,-0.8519,-0.8518,-0.8537,-0.8371,-0.8375,-0.8378,-0.8509,0,-0.7025,-0.7218,-0.7278,-0.7443,-0.7543,-0.7586,-0.7684,-0.7779,-0.7842,-0.7942,-0.8014,-0.8128,-0.8121,-0.8169,-0.8244,-0.8326,-0.8406,-0.8317,-0.8469,-0.8473,-0.8438,-0.8561,-0.856,-0.8679,-0.8528,-0.8531,-0.8533,0,-0.718,-0.728,-0.7453,-0.7575,-0.762,-0.7706,-0.7828,-0.792,-0.8031,-0.8073,-0.816,-0.8201,-0.8325,-0.8293,-0.8468,-0.8406,-0.8472,-0.8522,-0.8528,-0.8547,-0.8509,-0.8585,-0.8718,-0.8737,-0.8561,-0.8559,-0.8557,0,-0.7226,-0.7406,-0.7533,-0.7587,-0.7731,-0.7791,-0.7856,-0.7963,-0.8036,-0.8144,-0.8193,-0.8316,-0.8384,-0.8481,-0.8557,-0.8526,-0.8726,-0.87,-0.8768,-0.8767,-0.881,-0.8806,-0.8958,-0.8849,-0.8848,-0.8848,-0.8848,0,-0.7345,-0.7451,-0.7556,-0.7634,-0.7755,-0.7825,-0.7945,-0.8012,-0.8108,-0.8205,-0.825,-0.8341,-0.8435,-0.854,-0.8601,-0.8738,-0.8768,-0.8809,-0.8824,-0.8806,-0.8801,-0.8852,-0.8846,-0.8853,-0.8852,-0.8851,-0.885,0,-0.7418,-0.7492,-0.7634,-0.7759,-0.7793,-0.7877,-0.7986,-0.8068,-0.8132,-0.8255,-0.8288,-0.8392,-0.8518,-0.8603,-0.8766,-0.8807,-0.8957,-0.8969,-0.8918,-0.8925,-0.899,-0.8984,-0.9181,-0.9212,-0.9079,-0.9081,-0.9082,0,-0.749,-0.7571,-0.7704,-0.7769,-0.7832,-0.7938,-0.8011,-0.8085,-0.8161,-0.8294,-0.836,-0.8488,-0.8594,-0.8795,-0.8889,-0.9015,-0.9033,-0.9094,-0.9053,-0.9032,-0.9037,-0.9032,-0.9043,-0.9101,-0.9102,-0.9102,-0.9103,0,-0.7611,-0.7644,-0.7744,-0.786,-0.7945,-0.804,-0.8137,-0.8189,-0.8281,-0.8365,-0.8491,-0.8573,-0.8738,-0.8867,-0.9001,-0.9074,-0.9106,-0.9115,-0.9138,-0.9121,-0.9088,-0.9109,-0.8938,-0.9111,-0.911,-0.9109,-0.9109,-0.9109,-0.7688,-0.7763,-0.7867,-0.798,-0.8059,-0.8148,-0.823,-0.8305,-0.841,-0.8546,-0.8585,-0.8718,-0.8832,-0.9015,-0.909,-0.9199,-0.9194,-0.9226,-0.9235,-0.9243,-0.9244,-0.9069,-0.9224,-0.9224,-0.9224,-0.9224,-0.9224,0,-0.7813,-0.7882,-0.7985,-0.8115,-0.8205,-0.8222,-0.833,-0.8405,-0.852,-0.862,-0.8723,-0.8871,-0.8997,-0.91,-0.9231,-0.9299,-0.9317,-0.9331,-0.9328,-0.9345,-0.924,-0.9208,-0.9314,-0.9314,-0.9314,-0.9314,-0.9314,-0.9314,-0.7889,-0.8017,-0.8063,-0.8233,-0.8303,-0.843,-0.8491,-0.8575,-0.8655,-0.8817,-0.8919,-0.8983,-0.9088,-0.9226,-0.9344,-0.9372,-0.9419,-0.943,-0.9462,-0.9362,-0.9352,-0.9342,-0.9313,-0.9439,-0.9439,-0.9558,-0.9559,-0.956]},{"header":{"parameterUnit":"m.s-1","parameterCategory":1,"la1":30.2991,"la2":30.254,"lo1":-89.0895,"lo2":-89.0444,"dy":0.0017,"dx":0.0017,"nx":28,"ny":28,"refTime":"2025-08-20T03:00:00:Z","depth":0,"parameterNumber":3,"parameterNumberName":"V-component_of_WINDS"},"data":[0,0,0,0,0,0,0,0,0,0,0,0,0,0,0,0,0,0,0,0,0,0,0,0,0,0,0,0,0,0,0,0,0,0,0,0,0,0,0,0,0,0,0,0,0,0,0,0,0,0,0,0,0,0,0,0,0,0,3.3893,3.3893,0,3.3839,3.3838,3.3838,3.3835,3.3836,3.3836,3.3837,3.3772,3.377,3.3767,0,0,0,0,0,0,0,0,0,0,0,0,0,3.3986,3.3984,3.3893,3.3893,3.3892,3.3839,3.3838,3.3838,3.3835,3.3836,3.3836,3.3837,3.3773,3.377,3.3767,0,0,0,0,0,0,0,0,0,0,0,0,0,3.394,3.3984,3.3893,3.3884,3.3883,3.3839,3.3838,3.3837,3.3835,3.3836,3.3837,3.3838,3.3774,3.377,3.3767,3.3726,0,0,3.3756,3.3755,0,0,0,0,0,0,0,0,3.3942,3.3936,3.3886,3.3885,3.3883,3.3845,3.3847,3.38,3.3834,3.3853,3.3837,3.3838,3.3795,3.379,3.3777,3.3723,3.372,3.3756,3.3754,3.3752,3.3751,0,0,0,0,0,0,0,3.3946,3.3939,3.3872,3.3886,3.3884,3.388,3.3875,3.3838,3.3819,3.3851,3.3851,3.3845,3.3794,3.378,3.3776,3.3719,3.3756,3.3753,3.3751,3.3749,3.3627,3.3626,0,0,0,0,0,0,3.3952,3.3941,3.3873,3.387,3.3916,3.3878,3.3872,3.3856,3.3819,3.3815,3.3844,3.3845,3.3786,3.378,3.3773,3.3723,3.3752,3.3749,3.3747,3.3628,3.3627,3.3626,0,0,0,0,0,0,3.3954,3.3946,3.3875,3.3906,3.3896,3.3875,3.3858,3.3855,3.3841,3.3814,3.381,3.3835,3.3787,3.3778,3.3738,3.372,3.3747,3.3744,3.363,3.3628,3.3626,3.3621,0,0,0,0,0,0,3.3957,3.3947,3.3933,3.3905,3.3895,3.3844,3.3857,3.3853,3.3836,3.3837,3.3804,3.3799,3.3787,3.3743,3.3735,3.3716,3.3741,3.3631,3.3629,3.3627,3.3623,3.3619,3.3617,0,0,0,0,0,3.396,3.3931,3.3932,3.3924,3.3878,3.3843,3.3836,3.3826,3.3835,3.3819,3.3802,3.38,3.3724,3.3739,3.3729,3.3709,3.3632,3.363,3.3627,3.3624,3.362,3.3617,0,0,0,0,0,0,3.3953,3.3927,3.3928,3.389,3.3869,3.3843,3.3823,3.3822,3.3795,3.3796,3.3781,3.3773,3.3734,3.3717,3.3735,3.3667,3.3679,3.3674,3.368,3.3676,3.3673,3.3677,3.3739,0,0,0,0,0,3.3948,3.3925,3.3902,3.3871,3.3861,3.3844,3.3828,3.3822,3.3798,3.3788,3.3768,3.3742,3.3713,3.3693,3.3664,3.362,3.3612,3.3602,3.3599,3.3596,3.3592,3.3567,3.3562,3.3617,3.3617,3.3617,0,0,3.3936,3.3919,3.3905,3.387,3.3852,3.3826,3.3836,3.3808,3.3788,3.3783,3.3745,3.3729,3.3699,3.3657,3.3638,3.3642,3.3575,3.3593,3.3591,3.3588,3.3564,3.3559,3.3554,3.3616,3.3616,3.3616,0,0,3.3901,3.3886,3.3859,3.3842,3.3818,3.3807,3.38,3.3774,3.3764,3.3726,3.3722,3.3696,3.3646,3.3625,3.3608,3.3566,3.3562,3.3556,3.354,3.3516,3.3511,3.3507,3.3492,3.3487,3.3552,3.3552,3.3552,0,3.3888,3.3851,3.3844,3.3817,3.3801,3.3799,3.377,3.3753,3.3718,3.3706,3.3713,3.365,3.363,3.3583,3.3573,3.3559,3.3549,3.356,3.3513,3.3509,3.3505,3.349,3.3485,3.3552,3.3552,3.3552,3.3552,0,3.3837,3.3811,3.3792,3.3763,3.3744,3.3716,3.3702,3.3684,3.3679,3.3667,3.3627,3.3603,3.357,3.3558,3.3552,3.351,3.3514,3.3517,3.3528,3.35,3.3485,3.3479,3.3551,3.3551,3.3551,3.3551,0,0,3.3795,3.3764,3.3756,3.3743,3.3716,3.3695,3.3666,3.3637,3.3621,3.3597,3.3571,3.3529,3.3532,3.3513,3.3504,3.3483,3.3451,3.3488,3.3487,3.3482,3.3402,3.34,3.3394,3.3449,3.3448,3.3447,3.3405,0,3.3757,3.3709,3.3701,3.3658,3.3634,3.3632,3.3606,3.3585,3.3573,3.3548,3.3532,3.3503,3.351,3.3498,3.3477,3.3459,3.3434,3.3462,3.3422,3.3421,3.343,3.3387,3.3384,3.3346,3.3399,3.3398,3.3398,0,3.3705,3.3684,3.364,3.3617,3.3606,3.3584,3.3556,3.3534,3.3509,3.3501,3.348,3.3474,3.3441,3.3455,3.3408,3.3427,3.341,3.3399,3.3397,3.3392,3.3407,3.338,3.3333,3.3328,3.3389,3.3389,3.339,0,3.368,3.3639,3.3608,3.3596,3.3569,3.3553,3.354,3.3517,3.35,3.3475,3.3463,3.3433,3.3416,3.3392,3.3377,3.3388,3.3331,3.3343,3.3322,3.3323,3.331,3.3311,3.3259,3.33,3.33,3.33,3.33,0,3.3638,3.361,3.3596,3.3576,3.3545,3.3536,3.3504,3.3491,3.347,3.3446,3.3441,3.3418,3.34,3.3373,3.3361,3.3324,3.3316,3.3307,3.3304,3.3308,3.3309,3.3296,3.3298,3.3298,3.3299,3.3299,3.3299,0,3.3603,3.3593,3.3558,3.3536,3.353,3.3507,3.3487,3.3466,3.3454,3.3424,3.3416,3.3396,3.3364,3.3348,3.3307,3.3299,3.3257,3.3256,3.3267,3.3265,3.3245,3.3248,3.3184,3.3174,3.3221,3.322,3.322,0,3.3577,3.3557,3.3533,3.3519,3.3506,3.3482,3.3465,3.3455,3.3437,3.3408,3.3391,3.336,3.3335,3.3284,3.3264,3.3233,3.323,3.321,3.3225,3.323,3.323,3.3231,3.3229,3.3207,3.3207,3.3206,3.3206,0,3.3532,3.3529,3.3507,3.3483,3.3464,3.3444,3.3424,3.3411,3.3397,3.3377,3.3347,3.3328,3.3288,3.3257,3.3224,3.3208,3.3204,3.3202,3.3195,3.3198,3.3206,3.3202,3.3259,3.3203,3.3203,3.3203,3.3204,3.3204,3.3501,3.3483,3.3464,3.344,3.3424,3.3406,3.3386,3.3373,3.3349,3.3318,3.3312,3.328,3.3255,3.3212,3.3194,3.3167,3.3171,3.3161,3.3159,3.3157,3.3156,3.3211,3.3161,3.3161,3.3161,3.3161,3.3161,0,3.3456,3.3444,3.3422,3.3396,3.3376,3.3378,3.3356,3.3338,3.3311,3.329,3.3267,3.3231,3.3201,3.3179,3.3148,3.313,3.3128,3.3122,3.3123,3.3119,3.3154,3.3163,3.3125,3.3125,3.3125,3.3125,3.3125,3.3125,3.343,3.34,3.3394,3.3355,3.3342,3.3314,3.3301,3.3283,3.3266,3.3229,3.3205,3.3192,3.317,3.3137,3.3109,3.3103,3.3091,3.3086,3.308,3.3113,3.3117,3.3121,3.3129,3.3084,3.3084,3.3047,3.3047,3.3047]}]]